TimeEDT,TemperatureF,Dew PointF,Humidity,Sea Level PressureIn,VisibilityMPH,Wind Direction,Wind SpeedMPH,Gust SpeedMPH,PrecipitationIn,Events,Conditions,WindDirDegrees,DateUTC
12:55 AM,30.9,21.0,67,29.97,10.0,WNW,10.4,-,N/A,,Clear,300,2013-04-05 04:55:00
1:55 AM,30.9,21.9,69,29.98,10.0,NNW,6.9,-,N/A,,Clear,330,2013-04-05 05:55:00
2:55 AM,30.0,19.9,66,30.00,10.0,NW,6.9,-,N/A,,Clear,320,2013-04-05 06:55:00
3:55 AM,28.9,19.9,69,30.02,10.0,North,9.2,-,N/A,,Clear,350,2013-04-05 07:55:00
4:55 AM,27.0,19.0,72,30.05,10.0,North,4.6,-,N/A,,Scattered Clouds,360,2013-04-05 08:55:00
5:55 AM,26.1,12.9,58,30.09,10.0,NNE,8.1,-,N/A,,Clear,20,2013-04-05 09:55:00
6:55 AM,24.1,10.0,55,30.14,10.0,North,8.1,-,N/A,,Clear,360,2013-04-05 10:55:00
7:55 AM,24.1,10.0,55,30.17,10.0,North,4.6,-,N/A,,Clear,350,2013-04-05 11:55:00
8:55 AM,26.1,10.9,53,30.18,10.0,NNE,4.6,-,N/A,,Clear,30,2013-04-05 12:55:00
9:55 AM,27.0,10.9,51,30.19,10.0,NW,4.6,-,N/A,,Clear,310,2013-04-05 13:55:00
10:55 AM,28.9,12.9,51,30.20,10.0,NW,10.4,-,N/A,,Scattered Clouds,320,2013-04-05 14:55:00
11:55 AM,28.9,16.0,58,30.22,9.0,WNW,10.4,-,0.00,Snow,Light Snow,300,2013-04-05 15:55:00
12:55 PM,28.9,12.0,49,30.22,10.0,NW,13.8,23.0,0.00,,Partly Cloudy,310,2013-04-05 16:55:00
1:55 PM,28.9,12.0,49,30.21,10.0,NW,12.7,-,N/A,,Partly Cloudy,310,2013-04-05 17:55:00
2:55 PM,28.9,12.9,51,30.21,10.0,NW,12.7,-,N/A,,Partly Cloudy,310,2013-04-05 18:55:00
3:55 PM,30.0,14.0,51,30.20,10.0,WNW,13.8,23.0,N/A,,Partly Cloudy,300,2013-04-05 19:55:00
4:55 PM,28.9,14.0,54,30.20,10.0,NW,16.1,-,N/A,,Partly Cloudy,320,2013-04-05 20:55:00
5:55 PM,28.0,14.0,56,30.20,10.0,NW,15.0,-,N/A,,Clear,320,2013-04-05 21:55:00
6:55 PM,28.0,14.0,56,30.20,10.0,NW,11.5,19.6,N/A,,Clear,310,2013-04-05 22:55:00
7:55 PM,27.0,14.0,58,30.21,10.0,WNW,10.4,17.3,N/A,,Clear,300,2013-04-05 23:55:00
8:55 PM,26.1,15.1,63,30.21,10.0,NW,8.1,-,N/A,,Clear,310,2013-04-06 00:55:00
9:55 PM,23.0,14.0,68,30.24,10.0,WSW,4.6,-,N/A,,Clear,250,2013-04-06 01:55:00
10:55 PM,24.1,15.1,69,30.24,10.0,WNW,3.5,-,N/A,,Clear,290,2013-04-06 02:55:00
11:55 PM,21.9,14.0,72,30.21,10.0,Calm,Calm,-,N/A,,Clear,0,2013-04-06 03:55:00